sat.trackr.live / text

‹ back to catalog

STARLINK-37041

NORAD 68104 · 2026-044D

PAYLOAD ACTIVE UNKNOWN

§ Identity

Operator
Country
US
Launch date
2026-03-08
Launch site
AFWTR
Launch vehicle
Mass (kg)
RCS (m²)

Purposes: comms

External: N2YO · Heavens-Above · Gunter

§ Orbital elements

Epoch: 2026-09-19T21:49:01.704864Z

Period
93.91 min
Inclination
97.2836°
Eccentricity
0.0001779
Mean motion
15.33451513 rev/d
Perigee alt
464.3 km
Apogee alt
466.7 km
Semi-major
6,843.7 km
B*
5.6287e-4
RAAN
221.8144°
Arg perigee
104.2128°
Mean anomaly
255.9312°
Rev number
3,134

§ Raw data

STARLINK-370411 68104U 26044D   26262.90904751  .00018144  00000+0  56287-3 0  99962 68104  97.2836 221.8144 0001779 104.2128 255.9312 15.33451513 31349

JSON: /api/v1/satellites/68104 · /tle

For live sub-satellite position, see the globe view (requires WebGL).

§ Visibility from observer

Set your observer location to see the next 7 days of passes ≥ 10°. The values pass through the URL so the page stays shareable.

No JS? Fill the form by hand. The geolocation button needs JavaScript.